VOE3AL LEMG-LFST

Flight info

Callsign VOE3AL
Flight time 2h 16m
Altitude 34000
Route BLN L27 YAKXU DCT RONNY DCT TOPTU DCT TOU DCT GAI DCT MEN DCT NINUN DCT LATAM DCT ETREK DCT LTP DCT SOPLO DCT OMASI DCT KINNI DCT GILIR DCT PENDU DCT LUL
Aircraft A320/M-SDE3FGHIRWY/LB1

Departure

Time 2026-05-06 19:07
Airport Málaga-Costa del Sol Airport (LEMG)

Arrival

Time 2026-05-06 21:24
Airport Strasbourg Airport (LFST)
Time Latitude Longitude Altitude Speed Heading
2026-05-06 18:43 36.67770 -4.49607 46 ft 0 kts 42°
2026-05-06 18:57 36.67764 -4.49613 46 ft 2 kts 42°
2026-05-06 18:57 36.67753 -4.49626 46 ft 2 kts 42°
2026-05-06 18:57 36.67741 -4.49638 46 ft 2 kts 42°
2026-05-06 18:57 36.67731 -4.49650 46 ft 1 kts 42°
2026-05-06 18:58 36.67722 -4.49659 46 ft 2 kts 22°
2026-05-06 18:58 36.67707 -4.49661 46 ft 2 kts 348°
2026-05-06 18:58 36.67695 -4.49654 45 ft 0 kts 318°
2026-05-06 18:58 36.67693 -4.49652 45 ft 1 kts 315°
2026-05-06 18:59 36.67715 -4.49680 46 ft 5 kts 313°
2026-05-06 18:59 36.67728 -4.49698 46 ft 0 kts 313°
2026-05-06 19:01 36.67729 -4.49699 46 ft 0 kts 313°
2026-05-06 19:01 36.67736 -4.49709 46 ft 3 kts 312°
2026-05-06 19:02 36.67765 -4.49749 46 ft 8 kts 312°
2026-05-06 19:02 36.67806 -4.49818 46 ft 8 kts 284°
2026-05-06 19:02 36.67758 -4.49865 44 ft 9 kts 195°
2026-05-06 19:02 36.67721 -4.49930 44 ft 10 kts 287°
2026-05-06 19:03 36.67771 -4.50008 45 ft 12 kts 312°
2026-05-06 19:03 36.67829 -4.50090 47 ft 13 kts 312°
2026-05-06 19:03 36.67896 -4.50184 47 ft 15 kts 311°
2026-05-06 19:03 36.67972 -4.50290 46 ft 17 kts 312°
2026-05-06 19:04 36.68060 -4.50412 44 ft 19 kts 311°
2026-05-06 19:04 36.68154 -4.50545 45 ft 21 kts 312°
2026-05-06 19:04 36.68253 -4.50683 46 ft 21 kts 312°
2026-05-06 19:04 36.68351 -4.50822 47 ft 20 kts 311°
2026-05-06 19:05 36.68435 -4.50939 49 ft 14 kts 310°
2026-05-06 19:05 36.68490 -4.51021 51 ft 11 kts 303°
2026-05-06 19:05 36.68494 -4.51110 52 ft 9 kts 253°
2026-05-06 19:05 36.68474 -4.51184 53 ft 7 kts 251°
2026-05-06 19:06 36.68446 -4.51225 54 ft 4 kts 208°
2026-05-06 19:06 36.68421 -4.51212 54 ft 3 kts 134°
2026-05-06 19:06 36.68420 -4.51210 54 ft 0 kts 133°
2026-05-06 19:06 36.68411 -4.51198 54 ft 11 kts 133°
2026-05-06 19:07 36.68191 -4.50890 51 ft 83 kts 130°
2026-05-06 19:07 36.67664 -4.50158 50 ft 142 kts 131°
2026-05-06 19:07 36.66891 -4.49092 218 ft 175 kts 131°
2026-05-06 19:07 36.66092 -4.48005 858 ft 174 kts 131°
2026-05-06 19:08 36.65275 -4.46880 1493 ft 177 kts 130°
2026-05-06 19:08 36.64428 -4.45672 1893 ft 190 kts 130°
2026-05-06 19:08 36.63537 -4.44390 2323 ft 202 kts 130°
2026-05-06 19:08 36.62598 -4.43035 2741 ft 215 kts 130°
2026-05-06 19:09 36.61566 -4.41568 3119 ft 232 kts 131°
2026-05-06 19:09 36.60494 -4.40065 3814 ft 235 kts 128°
2026-05-06 19:09 36.59717 -4.38316 4524 ft 235 kts 106°
2026-05-06 19:09 36.59374 -4.36325 5285 ft 235 kts 99°
2026-05-06 19:10 36.59106 -4.34348 6004 ft 237 kts 99°
2026-05-06 19:10 36.58820 -4.32320 6732 ft 239 kts 100°
2026-05-06 19:10 36.58509 -4.30307 7393 ft 243 kts 100°
2026-05-06 19:10 36.58464 -4.28210 8005 ft 249 kts 76°
2026-05-06 19:11 36.59245 -4.26268 8635 ft 256 kts 53°
2026-05-06 19:11 36.60378 -4.24566 9237 ft 264 kts 49°
2026-05-06 19:11 36.61646 -4.22853 9885 ft 270 kts 50°
2026-05-06 19:11 36.62978 -4.21199 10521 ft 276 kts 37°
2026-05-06 19:12 36.64678 -4.20028 11017 ft 287 kts 21°
2026-05-06 19:12 36.66629 -4.19224 11379 ft 303 kts 17°
2026-05-06 19:12 36.68676 -4.18464 11690 ft 320 kts 16°
2026-05-06 19:12 36.70886 -4.17618 11996 ft 336 kts 17°
2026-05-06 19:13 36.73145 -4.16748 12266 ft 352 kts 17°
2026-05-06 19:13 36.75564 -4.15820 12643 ft 364 kts 17°
2026-05-06 19:13 36.77969 -4.14888 13206 ft 369 kts 16°
2026-05-06 19:13 36.80453 -4.13920 13809 ft 372 kts 16°
2026-05-06 19:14 36.82943 -4.12950 14412 ft 375 kts 16°
2026-05-06 19:14 36.85448 -4.11973 14999 ft 378 kts 16°
2026-05-06 19:14 36.87976 -4.10987 15560 ft 381 kts 16°
2026-05-06 19:14 36.90518 -4.09994 16130 ft 384 kts 16°
2026-05-06 19:15 36.93116 -4.08977 16691 ft 387 kts 16°
2026-05-06 19:15 36.95688 -4.07970 17218 ft 390 kts 16°
2026-05-06 19:15 36.98302 -4.06947 17725 ft 393 kts 16°
2026-05-06 19:15 37.00909 -4.05927 18242 ft 395 kts 16°
2026-05-06 19:16 37.03597 -4.04871 18738 ft 398 kts 15°
2026-05-06 19:16 37.06284 -4.03815 19155 ft 403 kts 15°
2026-05-06 19:16 37.09000 -4.02749 19564 ft 407 kts 15°
2026-05-06 19:16 37.11760 -4.01664 19952 ft 412 kts 15°
2026-05-06 19:17 37.14507 -4.00586 20346 ft 415 kts 15°
2026-05-06 19:17 37.17302 -3.99486 20778 ft 418 kts 15°
2026-05-06 19:17 37.20126 -3.98390 21191 ft 421 kts 14°
2026-05-06 19:17 37.22977 -3.97322 21575 ft 425 kts 14°
2026-05-06 19:18 37.25836 -3.96261 21951 ft 429 kts 13°
2026-05-06 19:18 37.28743 -3.95181 22317 ft 433 kts 13°
2026-05-06 19:18 37.31654 -3.94097 22692 ft 436 kts 13°
2026-05-06 19:18 37.34625 -3.92987 23076 ft 439 kts 13°
2026-05-06 19:19 37.36836 -3.92160 23354 ft 441 kts 13°
2026-05-06 19:19 37.39785 -3.91056 23708 ft 445 kts 13°
2026-05-06 19:19 37.42751 -3.89946 24063 ft 448 kts 13°
2026-05-06 19:19 37.45743 -3.88822 24426 ft 450 kts 13°
2026-05-06 19:20 37.48775 -3.87683 24796 ft 452 kts 13°
2026-05-06 19:20 37.51799 -3.86547 25126 ft 455 kts 13°
2026-05-06 19:20 37.54290 -3.85610 25393 ft 457 kts 13°
2026-05-06 19:20 37.57357 -3.84454 25717 ft 460 kts 13°
2026-05-06 19:21 37.60473 -3.83281 26029 ft 462 kts 13°
2026-05-06 19:21 37.63559 -3.82116 26359 ft 464 kts 13°
2026-05-06 19:21 37.66649 -3.80950 26658 ft 467 kts 13°
2026-05-06 19:21 37.69800 -3.79760 26956 ft 469 kts 13°
2026-05-06 19:22 37.72928 -3.78576 27232 ft 472 kts 13°
2026-05-06 19:22 37.76098 -3.77375 27514 ft 474 kts 12°
2026-05-06 19:22 37.79290 -3.76165 27798 ft 476 kts 13°
2026-05-06 19:22 37.82451 -3.74968 28064 ft 478 kts 13°
2026-05-06 19:23 37.85638 -3.73759 28330 ft 480 kts 12°
2026-05-06 19:23 37.88840 -3.72542 28598 ft 482 kts 12°
2026-05-06 19:23 37.92059 -3.71317 28852 ft 484 kts 12°
2026-05-06 19:23 37.95272 -3.70094 29092 ft 486 kts 12°
2026-05-06 19:24 37.98561 -3.68841 29329 ft 488 kts 12°
2026-05-06 19:24 38.01810 -3.67604 29566 ft 489 kts 12°
2026-05-06 19:24 38.05045 -3.66370 29766 ft 491 kts 12°
2026-05-06 19:24 38.08335 -3.65114 30001 ft 492 kts 12°
2026-05-06 19:25 38.11644 -3.63847 30306 ft 491 kts 12°
2026-05-06 19:25 38.14919 -3.62570 30612 ft 491 kts 14°
2026-05-06 19:25 38.17245 -3.61548 30837 ft 491 kts 15°
2026-05-06 19:25 38.20447 -3.60061 31136 ft 490 kts 16°
2026-05-06 19:26 38.23664 -3.58538 31411 ft 489 kts 16°
2026-05-06 19:26 38.26837 -3.57029 31662 ft 489 kts 16°
2026-05-06 19:26 38.30035 -3.55510 31926 ft 488 kts 16°
2026-05-06 19:26 38.33216 -3.54002 32186 ft 487 kts 16°
2026-05-06 19:27 38.36426 -3.52481 32455 ft 486 kts 16°
2026-05-06 19:27 38.39581 -3.50986 32708 ft 486 kts 16°
2026-05-06 19:27 38.42741 -3.49489 32959 ft 485 kts 16°
2026-05-06 19:27 38.45933 -3.47976 33202 ft 484 kts 16°
2026-05-06 19:28 38.49076 -3.46484 33455 ft 483 kts 16°
2026-05-06 19:28 38.52218 -3.44992 33682 ft 483 kts 16°
2026-05-06 19:28 38.55364 -3.43497 33914 ft 482 kts 15°
2026-05-06 19:28 38.58517 -3.41997 34157 ft 481 kts 16°
2026-05-06 19:29 38.61650 -3.40505 34350 ft 481 kts 15°
2026-05-06 19:29 38.64784 -3.39012 34518 ft 482 kts 16°
2026-05-06 19:29 38.67934 -3.37510 34657 ft 482 kts 16°
2026-05-06 19:29 38.71099 -3.35999 34786 ft 483 kts 16°
2026-05-06 19:30 38.74227 -3.34505 34922 ft 482 kts 17°
2026-05-06 19:30 38.77387 -3.32993 35039 ft 482 kts 17°
2026-05-06 19:30 38.79883 -3.31798 35105 ft 483 kts 17°
2026-05-06 19:31 38.86167 -3.28785 35281 ft 485 kts 17°
2026-05-06 19:31 38.95674 -3.24216 35586 ft 485 kts 17°
2026-05-06 19:32 38.98865 -3.22679 35689 ft 485 kts 17°
2026-05-06 19:32 39.02025 -3.21154 35770 ft 485 kts 17°
2026-05-06 19:32 39.08369 -3.18088 35900 ft 485 kts 17°
2026-05-06 19:33 39.14691 -3.15028 35931 ft 485 kts 17°
2026-05-06 19:33 39.20989 -3.11975 35929 ft 484 kts 17°
2026-05-06 19:34 39.27321 -3.08902 35928 ft 484 kts 17°
2026-05-06 19:34 39.33631 -3.05833 35927 ft 484 kts 17°
2026-05-06 19:35 39.39936 -3.02758 35924 ft 484 kts 17°
2026-05-06 19:35 39.45731 -2.99915 35925 ft 484 kts 17°
2026-05-06 19:36 39.52023 -2.96818 35928 ft 485 kts 17°
2026-05-06 19:36 39.58313 -2.93717 35924 ft 484 kts 17°
2026-05-06 19:37 39.64600 -2.90618 35944 ft 483 kts 17°
2026-05-06 19:37 39.70910 -2.87506 35940 ft 483 kts 17°
2026-05-06 19:38 39.77189 -2.84404 35945 ft 483 kts 17°
2026-05-06 19:38 39.83452 -2.81304 35947 ft 482 kts 17°
2026-05-06 19:39 39.89718 -2.78197 35960 ft 482 kts 17°
2026-05-06 19:39 39.95980 -2.75086 35966 ft 482 kts 17°
2026-05-06 19:40 40.02295 -2.71941 35963 ft 483 kts 17°
2026-05-06 19:40 40.08033 -2.69078 35968 ft 482 kts 17°
2026-05-06 19:41 40.14321 -2.65935 35968 ft 482 kts 17°
2026-05-06 19:41 40.20583 -2.62801 35969 ft 481 kts 17°
2026-05-06 19:42 40.26858 -2.59653 35967 ft 481 kts 17°
2026-05-06 19:42 40.33083 -2.56522 35967 ft 480 kts 17°
2026-05-06 19:43 40.39234 -2.53136 35966 ft 483 kts 22°
2026-05-06 19:43 40.45262 -2.49225 35966 ft 483 kts 23°
2026-05-06 19:44 40.51297 -2.45248 35965 ft 482 kts 23°
2026-05-06 19:44 40.57277 -2.41314 35964 ft 482 kts 23°
2026-05-06 19:45 40.63290 -2.37360 35961 ft 482 kts 23°
2026-05-06 19:45 40.68818 -2.33720 35961 ft 482 kts 24°
2026-05-06 19:46 40.74823 -2.29760 35968 ft 482 kts 24°
2026-05-06 19:46 40.80813 -2.25798 35974 ft 481 kts 24°
2026-05-06 19:47 40.86811 -2.21828 35970 ft 482 kts 24°
2026-05-06 19:47 40.92796 -2.17856 35978 ft 481 kts 24°
2026-05-06 19:48 40.98770 -2.13886 35987 ft 480 kts 24°
2026-05-06 19:48 41.04783 -2.09877 35992 ft 480 kts 24°
2026-05-06 19:49 41.10616 -2.05567 35993 ft 482 kts 29°
2026-05-06 19:49 41.16341 -2.00794 35998 ft 482 kts 30°
2026-05-06 19:50 41.21993 -1.96039 36004 ft 482 kts 30°
2026-05-06 19:50 41.27141 -1.91714 36003 ft 482 kts 29°
2026-05-06 19:51 41.32818 -1.86946 36000 ft 482 kts 29°
2026-05-06 19:51 41.38496 -1.82169 36004 ft 481 kts 29°
2026-05-06 19:52 41.44156 -1.77397 35999 ft 481 kts 29°
2026-05-06 19:52 41.49798 -1.72630 35996 ft 480 kts 29°
2026-05-06 19:53 41.55436 -1.67857 35995 ft 480 kts 29°
2026-05-06 19:53 41.61064 -1.63083 35990 ft 479 kts 29°
2026-05-06 19:54 41.66725 -1.58270 35991 ft 480 kts 29°
2026-05-06 19:54 41.72325 -1.53500 35986 ft 480 kts 29°
2026-05-06 19:55 41.77983 -1.48670 35983 ft 480 kts 29°
2026-05-06 19:55 41.83236 -1.44176 35979 ft 480 kts 29°
2026-05-06 19:56 41.88840 -1.39373 35982 ft 479 kts 29°
2026-05-06 19:56 41.94450 -1.34553 35975 ft 478 kts 30°
2026-05-06 19:57 42.00025 -1.29757 35974 ft 478 kts 30°
2026-05-06 19:57 42.05625 -1.24927 35966 ft 478 kts 30°
2026-05-06 19:58 42.11096 -1.19867 35963 ft 480 kts 35°
2026-05-06 19:58 42.16295 -1.14189 35972 ft 481 kts 37°
2026-05-06 19:59 42.21420 -1.08462 35966 ft 480 kts 37°
2026-05-06 19:59 42.26555 -1.02736 35962 ft 480 kts 37°
2026-05-06 20:00 42.31707 -0.96994 35975 ft 480 kts 37°
2026-05-06 20:00 42.36238 -0.91933 35978 ft 480 kts 37°
2026-05-06 20:01 42.41275 -0.86011 35988 ft 482 kts 41°
2026-05-06 20:01 42.45824 -0.79356 35981 ft 484 kts 49°
2026-05-06 20:02 42.49948 -0.72173 36238 ft 484 kts 50°
2026-05-06 20:02 42.51979 -0.68561 36109 ft 483 kts 50°
2026-05-06 20:02 42.54022 -0.64934 36047 ft 483 kts 50°
2026-05-06 20:03 42.58092 -0.57721 36001 ft 483 kts 50°
2026-05-06 20:03 42.62185 -0.50469 35982 ft 483 kts 50°
2026-05-06 20:04 42.66271 -0.43221 35981 ft 483 kts 50°
2026-05-06 20:04 42.70347 -0.35975 35980 ft 483 kts 50°
2026-05-06 20:05 42.74469 -0.28766 35980 ft 483 kts 50°
2026-05-06 20:05 42.78253 -0.22166 35971 ft 484 kts 50°
2026-05-06 20:06 42.82362 -0.14963 35968 ft 483 kts 50°
2026-05-06 20:06 42.86486 -0.07710 35975 ft 483 kts 50°
2026-05-06 20:07 42.90578 -0.00503 35973 ft 483 kts 50°
2026-05-06 20:07 42.94688 0.06754 35984 ft 483 kts 50°
2026-05-06 20:08 42.98777 0.13992 35986 ft 484 kts 50°
2026-05-06 20:08 43.02888 0.21288 35999 ft 484 kts 50°
2026-05-06 20:09 43.06976 0.28561 36004 ft 484 kts 50°
2026-05-06 20:09 43.11057 0.35840 36008 ft 484 kts 50°
2026-05-06 20:10 43.15142 0.43143 36018 ft 485 kts 50°
2026-05-06 20:10 43.18893 0.49866 36009 ft 484 kts 50°
2026-05-06 20:11 43.22981 0.57207 36018 ft 484 kts 50°
2026-05-06 20:11 43.27051 0.64536 36012 ft 483 kts 50°
2026-05-06 20:12 43.31097 0.71838 36010 ft 484 kts 51°
2026-05-06 20:12 43.35163 0.79198 36012 ft 483 kts 51°
2026-05-06 20:13 43.39202 0.86526 36003 ft 483 kts 50°
2026-05-06 20:13 43.43261 0.93907 36006 ft 483 kts 51°
2026-05-06 20:14 43.47301 1.01273 36004 ft 484 kts 50°
2026-05-06 20:14 43.51331 1.08638 36003 ft 483 kts 51°
2026-05-06 20:15 43.55347 1.16000 35996 ft 482 kts 51°
2026-05-06 20:15 43.59017 1.22739 35995 ft 481 kts 51°
2026-05-06 20:16 43.63040 1.30146 35990 ft 482 kts 51°
2026-05-06 20:16 43.67046 1.37544 35999 ft 482 kts 51°
2026-05-06 20:17 43.71041 1.44938 35998 ft 482 kts 51°
2026-05-06 20:17 43.75029 1.52335 35991 ft 483 kts 51°
2026-05-06 20:18 43.79036 1.59790 35988 ft 483 kts 51°
2026-05-06 20:18 43.83021 1.67220 35990 ft 483 kts 52°
2026-05-06 20:19 43.87026 1.74706 35987 ft 483 kts 51°
2026-05-06 20:19 43.90992 1.82140 35987 ft 483 kts 52°
2026-05-06 20:20 43.94987 1.89650 35984 ft 483 kts 52°
2026-05-06 20:20 43.98614 1.96486 35981 ft 483 kts 52°
2026-05-06 20:21 44.02607 2.04027 35986 ft 484 kts 52°
2026-05-06 20:21 44.06578 2.11547 35984 ft 484 kts 52°
2026-05-06 20:22 44.10549 2.19085 35984 ft 483 kts 52°
2026-05-06 20:22 44.14502 2.26610 35982 ft 483 kts 52°
2026-05-06 20:23 44.18465 2.34172 35990 ft 483 kts 52°
2026-05-06 20:23 44.22415 2.41729 35990 ft 483 kts 52°
2026-05-06 20:24 44.26337 2.49250 35982 ft 483 kts 52°
2026-05-06 20:24 44.30283 2.56839 35981 ft 483 kts 52°
2026-05-06 20:25 44.34215 2.64419 35975 ft 483 kts 52°
2026-05-06 20:25 44.38146 2.72018 35979 ft 483 kts 53°
2026-05-06 20:26 44.42066 2.79616 35977 ft 484 kts 53°
2026-05-06 20:26 44.46008 2.87277 35975 ft 483 kts 53°
2026-05-06 20:27 44.49959 2.94973 35983 ft 483 kts 53°
2026-05-06 20:27 44.53863 3.02598 35976 ft 482 kts 53°
2026-05-06 20:28 44.57801 3.10310 35973 ft 483 kts 53°
2026-05-06 20:28 44.61552 3.18090 35972 ft 483 kts 58°
2026-05-06 20:29 44.64874 3.26246 35966 ft 484 kts 60°
2026-05-06 20:29 44.68164 3.34515 35967 ft 483 kts 60°
2026-05-06 20:30 44.73066 3.46806 35961 ft 483 kts 59°
2026-05-06 20:31 44.76352 3.55062 35958 ft 484 kts 59°
2026-05-06 20:31 44.79614 3.63289 35957 ft 483 kts 59°
2026-05-06 20:32 44.82879 3.71544 35953 ft 485 kts 60°
2026-05-06 20:32 44.86165 3.79876 35958 ft 485 kts 60°
2026-05-06 20:33 44.89422 3.88160 35949 ft 485 kts 60°
2026-05-06 20:33 44.92688 3.96493 35956 ft 485 kts 60°
2026-05-06 20:34 44.95311 4.03200 35953 ft 485 kts 60°
2026-05-06 20:34 44.98559 4.11525 35956 ft 485 kts 60°
2026-05-06 20:35 45.01790 4.19838 35953 ft 486 kts 61°
2026-05-06 20:35 45.05026 4.28196 35952 ft 486 kts 60°
2026-05-06 20:36 45.08269 4.36593 35955 ft 485 kts 60°
2026-05-06 20:36 45.11498 4.44971 35951 ft 485 kts 60°
2026-05-06 20:37 45.14712 4.53336 35953 ft 485 kts 61°
2026-05-06 20:37 45.17922 4.61720 35951 ft 485 kts 61°
2026-05-06 20:38 45.21078 4.69990 35953 ft 486 kts 62°
2026-05-06 20:38 45.24276 4.78397 35950 ft 486 kts 62°
2026-05-06 20:39 45.27478 4.86834 35942 ft 487 kts 62°
2026-05-06 20:39 45.30666 4.95263 35944 ft 486 kts 62°
2026-05-06 20:40 45.33858 5.03727 35944 ft 486 kts 62°
2026-05-06 20:40 45.37035 5.12177 35948 ft 486 kts 62°
2026-05-06 20:41 45.40194 5.20603 35956 ft 486 kts 62°
2026-05-06 20:41 45.43356 5.29063 35961 ft 487 kts 62°
2026-05-06 20:42 45.46723 5.37445 35968 ft 487 kts 57°
2026-05-06 20:42 45.50720 5.45220 35975 ft 488 kts 49°
2026-05-06 20:43 45.55313 5.52213 35980 ft 487 kts 42°
2026-05-06 20:43 45.60334 5.58649 35982 ft 486 kts 40°
2026-05-06 20:44 45.65371 5.65004 35983 ft 486 kts 41°
2026-05-06 20:44 45.70426 5.71456 35979 ft 486 kts 41°
2026-05-06 20:45 45.75471 5.77933 35978 ft 486 kts 41°
2026-05-06 20:45 45.80483 5.84378 35981 ft 487 kts 41°
2026-05-06 20:46 45.85519 5.90863 35975 ft 487 kts 41°
2026-05-06 20:46 45.90522 5.97327 35979 ft 487 kts 41°
2026-05-06 20:47 45.95538 6.03823 35979 ft 486 kts 41°
2026-05-06 20:47 46.00550 6.10332 35985 ft 486 kts 41°
2026-05-06 20:48 46.05912 6.16188 35983 ft 485 kts 29°
2026-05-06 20:48 46.12029 6.20014 35988 ft 482 kts 14°
2026-05-06 20:49 46.18602 6.21611 35984 ft 477 kts
2026-05-06 20:49 46.25283 6.21811 35987 ft 478 kts 358°
2026-05-06 20:50 46.31920 6.21920 35981 ft 478 kts 358°
2026-05-06 20:50 46.38576 6.22073 35979 ft 478 kts 358°
2026-05-06 20:51 46.45194 6.22248 35974 ft 477 kts 359°
2026-05-06 20:51 46.51809 6.22430 35975 ft 477 kts 359°
2026-05-06 20:52 46.58413 6.22651 35967 ft 476 kts
2026-05-06 20:52 46.65028 6.23094 35968 ft 476 kts
2026-05-06 20:53 46.71618 6.23531 35961 ft 475 kts
2026-05-06 20:53 46.78234 6.23947 35959 ft 476 kts
2026-05-06 20:54 46.84817 6.24353 35957 ft 476 kts
2026-05-06 20:54 46.91454 6.24759 35949 ft 476 kts
2026-05-06 20:55 46.98047 6.25162 35942 ft 476 kts
2026-05-06 20:55 47.04631 6.25569 35944 ft 475 kts
2026-05-06 20:56 47.11191 6.25980 35519 ft 469 kts
2026-05-06 20:56 47.14437 6.26184 34802 ft 472 kts
2026-05-06 20:56 47.17719 6.26386 34009 ft 476 kts
2026-05-06 20:56 47.21026 6.26589 33349 ft 477 kts
2026-05-06 20:57 47.24328 6.26794 32763 ft 476 kts
2026-05-06 20:57 47.27615 6.26998 32163 ft 475 kts
2026-05-06 20:57 47.30940 6.27205 31503 ft 475 kts
2026-05-06 20:57 47.34214 6.27409 30843 ft 475 kts
2026-05-06 20:58 47.37513 6.27616 30020 ft 475 kts
2026-05-06 20:58 47.40790 6.27818 29129 ft 474 kts
2026-05-06 20:58 47.44094 6.28026 28394 ft 468 kts
2026-05-06 20:58 47.47358 6.28238 27753 ft 461 kts
2026-05-06 20:59 47.50515 6.28434 27120 ft 454 kts
2026-05-06 20:59 47.53652 6.28627 26448 ft 448 kts
2026-05-06 20:59 47.56760 6.28821 25766 ft 443 kts
2026-05-06 20:59 47.59819 6.29017 25088 ft 438 kts
2026-05-06 21:00 47.62843 6.29208 24415 ft 433 kts
2026-05-06 21:00 47.65800 6.29397 23747 ft 428 kts
2026-05-06 21:00 47.68739 6.29587 23052 ft 424 kts
2026-05-06 21:00 47.71688 6.29838 22326 ft 421 kts
2026-05-06 21:01 47.74578 6.30131 21702 ft 416 kts
2026-05-06 21:01 47.77444 6.30422 21150 ft 409 kts
2026-05-06 21:01 47.80255 6.30706 20628 ft 403 kts
2026-05-06 21:01 47.82992 6.30974 20121 ft 397 kts
2026-05-06 21:02 47.85751 6.31243 19620 ft 392 kts
2026-05-06 21:02 47.88436 6.31506 19116 ft 388 kts
2026-05-06 21:02 47.91106 6.31787 18646 ft 383 kts
2026-05-06 21:02 47.93654 6.32895 18372 ft 384 kts 25°
2026-05-06 21:03 47.95947 6.34861 18122 ft 385 kts 31°
2026-05-06 21:03 47.98220 6.37003 17863 ft 383 kts 32°
2026-05-06 21:03 48.00481 6.39109 17606 ft 382 kts 31°
2026-05-06 21:03 48.02739 6.41161 17347 ft 381 kts 30°
2026-05-06 21:04 48.05023 6.43192 17089 ft 380 kts 30°
2026-05-06 21:04 48.07283 6.45176 16833 ft 379 kts 30°
2026-05-06 21:04 48.09558 6.47164 16569 ft 377 kts 29°
2026-05-06 21:04 48.11805 6.49116 16314 ft 376 kts 30°
2026-05-06 21:05 48.14076 6.51088 16047 ft 375 kts 29°
2026-05-06 21:05 48.16317 6.53032 15784 ft 374 kts 29°
2026-05-06 21:05 48.18577 6.54992 15527 ft 373 kts 28°
2026-05-06 21:05 48.20807 6.56928 15263 ft 372 kts 30°
2026-05-06 21:06 48.23031 6.58862 15005 ft 371 kts 29°
2026-05-06 21:06 48.25282 6.60822 14749 ft 369 kts 29°
2026-05-06 21:06 48.27476 6.62733 14499 ft 367 kts 29°
2026-05-06 21:06 48.29687 6.64662 14241 ft 366 kts 29°
2026-05-06 21:07 48.31885 6.66579 13980 ft 364 kts 30°
2026-05-06 21:07 48.34067 6.68485 13726 ft 363 kts 30°
2026-05-06 21:07 48.36175 6.70329 13479 ft 360 kts 30°
2026-05-06 21:07 48.38335 6.72220 13218 ft 359 kts 30°
2026-05-06 21:08 48.40498 6.74114 12962 ft 358 kts 30°
2026-05-06 21:08 48.42633 6.75985 12712 ft 357 kts 30°
2026-05-06 21:08 48.44786 6.77874 12468 ft 355 kts 30°
2026-05-06 21:08 48.46916 6.79743 12213 ft 354 kts 30°
2026-05-06 21:09 48.49016 6.81591 11984 ft 352 kts 30°
2026-05-06 21:09 48.51146 6.83465 11914 ft 352 kts 30°
2026-05-06 21:09 48.53216 6.85400 11800 ft 353 kts 37°
2026-05-06 21:09 48.54765 6.88225 11528 ft 352 kts 64°
2026-05-06 21:10 48.55616 6.91709 11285 ft 352 kts 73°
2026-05-06 21:10 48.56287 6.95226 11043 ft 350 kts 74°
2026-05-06 21:10 48.56971 6.98732 10790 ft 348 kts 73°
2026-05-06 21:10 48.57698 7.02238 10535 ft 347 kts 72°
2026-05-06 21:11 48.58450 7.05691 10282 ft 345 kts 71°
2026-05-06 21:11 48.59213 7.09091 10029 ft 344 kts 71°
2026-05-06 21:11 48.59992 7.12514 9804 ft 343 kts 71°
2026-05-06 21:11 48.60775 7.15924 9668 ft 343 kts 70°
2026-05-06 21:12 48.61559 7.19325 9547 ft 335 kts 70°
2026-05-06 21:12 48.62309 7.22574 9413 ft 320 kts 70°
2026-05-06 21:12 48.63007 7.25598 9289 ft 300 kts 70°
2026-05-06 21:12 48.63685 7.28535 9162 ft 294 kts 70°
2026-05-06 21:13 48.64356 7.31447 9027 ft 294 kts 71°
2026-05-06 21:13 48.65029 7.34370 8904 ft 294 kts 70°
2026-05-06 21:13 48.65697 7.37277 8777 ft 293 kts 70°
2026-05-06 21:13 48.66370 7.40202 8646 ft 292 kts 70°
2026-05-06 21:14 48.67038 7.43112 8515 ft 292 kts 70°
2026-05-06 21:14 48.67708 7.46033 8389 ft 291 kts 70°
2026-05-06 21:14 48.68367 7.48912 8234 ft 291 kts 70°
2026-05-06 21:14 48.69028 7.51803 8066 ft 290 kts 70°
2026-05-06 21:15 48.69682 7.54667 7872 ft 289 kts 70°
2026-05-06 21:15 48.70341 7.57561 7596 ft 288 kts 70°
2026-05-06 21:15 48.70992 7.60419 7289 ft 287 kts 70°
2026-05-06 21:15 48.71637 7.63259 6960 ft 285 kts 70°
2026-05-06 21:16 48.72275 7.66074 6624 ft 284 kts 71°
2026-05-06 21:16 48.72913 7.68890 6287 ft 282 kts 71°
2026-05-06 21:16 48.73551 7.71714 5949 ft 280 kts 71°
2026-05-06 21:16 48.74156 7.74393 5624 ft 279 kts 71°
2026-05-06 21:17 48.74783 7.77174 5428 ft 270 kts 70°
2026-05-06 21:17 48.75366 7.79786 5333 ft 259 kts 73°
2026-05-06 21:17 48.75483 7.82415 5185 ft 249 kts 108°
2026-05-06 21:17 48.74587 7.84553 4960 ft 237 kts 148°
2026-05-06 21:18 48.73117 7.85481 4755 ft 225 kts 168°
2026-05-06 21:18 48.71639 7.86117 4545 ft 221 kts 166°
2026-05-06 21:18 48.70177 7.86845 4319 ft 218 kts 164°
2026-05-06 21:18 48.68740 7.87304 4127 ft 206 kts 189°
2026-05-06 21:19 48.67469 7.86559 3942 ft 194 kts 223°
2026-05-06 21:19 48.66570 7.85066 3702 ft 190 kts 234°
2026-05-06 21:19 48.65795 7.83503 3634 ft 184 kts 234°
2026-05-06 21:19 48.65007 7.81999 3632 ft 179 kts 232°
2026-05-06 21:20 48.64216 7.80581 3380 ft 175 kts 231°
2026-05-06 21:20 48.63429 7.79221 3134 ft 170 kts 230°
2026-05-06 21:20 48.62655 7.77900 2894 ft 165 kts 230°
2026-05-06 21:20 48.61914 7.76640 2663 ft 159 kts 230°
2026-05-06 21:21 48.61179 7.75390 2461 ft 159 kts 230°
2026-05-06 21:21 48.60451 7.74147 2285 ft 158 kts 230°
2026-05-06 21:21 48.59742 7.72935 2063 ft 149 kts 229°
2026-05-06 21:21 48.59080 7.71802 1857 ft 136 kts 228°
2026-05-06 21:22 48.58468 7.70756 1669 ft 131 kts 228°
2026-05-06 21:22 48.57863 7.69731 1493 ft 130 kts 227°
2026-05-06 21:22 48.57258 7.68721 1304 ft 129 kts 228°
2026-05-06 21:22 48.56683 7.67704 1131 ft 129 kts 228°
2026-05-06 21:23 48.56085 7.66683 972 ft 129 kts 227°
2026-05-06 21:23 48.55499 7.65673 810 ft 129 kts 226°
2026-05-06 21:23 48.54900 7.64651 637 ft 129 kts 226°
2026-05-06 21:23 48.54312 7.63645 505 ft 124 kts 228°
2026-05-06 21:24 48.53825 7.62817 505 ft 82 kts 228°
2026-05-06 21:24 48.53538 7.62321 507 ft 54 kts 228°
2026-05-06 21:24 48.53318 7.61946 509 ft 36 kts 230°
2026-05-06 21:24 48.53191 7.61724 511 ft 20 kts 230°
2026-05-06 21:25 48.53154 7.61609 511 ft 11 kts 279°
2026-05-06 21:25 48.53206 7.61510 511 ft 12 kts 319°
2026-05-06 21:25 48.53288 7.61504 511 ft 13 kts 38°
2026-05-06 21:25 48.53354 7.61614 510 ft 15 kts 49°
2026-05-06 21:26 48.53427 7.61737 510 ft 16 kts 49°
2026-05-06 21:26 48.53505 7.61871 509 ft 17 kts 48°
2026-05-06 21:26 48.53587 7.62012 508 ft 18 kts 49°
2026-05-06 21:26 48.53674 7.62161 507 ft 19 kts 48°
2026-05-06 21:27 48.53765 7.62316 507 ft 20 kts 49°
2026-05-06 21:27 48.53858 7.62476 506 ft 20 kts 50°
2026-05-06 21:27 48.53956 7.62642 505 ft 21 kts 49°
2026-05-06 21:27 48.54042 7.62791 504 ft 14 kts 48°
2026-05-06 21:28 48.54107 7.62900 504 ft 11 kts 49°
2026-05-06 21:28 48.54181 7.62922 504 ft 12 kts 327°
2026-05-06 21:28 48.54247 7.62846 504 ft 11 kts 329°
2026-05-06 21:28 48.54300 7.62804 504 ft 5 kts 335°
2026-05-06 21:29 48.54342 7.62793 504 ft 5 kts
2026-05-06 21:29 48.54367 7.62795 504 ft 1 kts
2026-05-06 21:29 48.54369 7.62795 504 ft 0 kts